Terminal Aerodrome Forecast
Issued by NWS

Home | Current Version | Previous Version | Text Only | Print | Product List | Glossary On
Versions: 1 2 3 4 5 6 7 8 9 10 11 12 13 14 15 16 17 18 19 20 21 22 23 24 25 26 27 28 29 30
000
FTUS46 KSEW 230300 AAA
TAFSEA
TAF AMD
KSEA 230300Z 2303/2406 22007KT P6SM VCSH BKN021 BKN120
     FM230400 20006KT P6SM OVC022
     FM230900 20006KT P6SM OVC012
     FM232000 24007KT P6SM BKN028 BKN110 BKN250
     FM232100 24007KT P6SM BKN035 BKN110 BKN250=

USA.gov is the U.S. government's official web portal to all federal, state and local government web resources and services.